Location: Fossil View Observatory
(30.3980°N, 99.3522°W)
Time: 06:13:30
(UTC-06:00)

Envisat - Visible Passes

Search period start: 13 November 2019 00:00
Search period end: 23 November 2019 00:00
Orbit: 764 x 766 km, 98.1° (Epoch: 13 November)

Date Brightness Start Highest point End Pass type
(mag) Time Alt. Az. Time Alt. Az. Time Alt. Az.
13 Nov 3.3 18:17:36 10° SE 18:22:21 42° ENE 18:27:07 10° N visible
13 Nov 5.8 19:58:23 10° SW 20:01:28 16° W 20:04:34 10° NW visible
14 Nov 5.8 06:32:49 10° NE 06:36:50 23° E 06:40:50 10° SSE visible
14 Nov 4.3 19:19:48 10° SSW 19:24:32 40° W 19:29:17 10° NNW visible
15 Nov 2.9 18:42:41 10° SSE 18:47:45 81° ENE 18:52:50 10° N visible
16 Nov 3.6 18:06:40 10° SE 18:11:09 33° ENE 18:15:38 10° N visible
16 Nov 5.5 19:46:20 10° SW 19:50:08 21° W 19:53:56 10° NW visible
17 Nov 6.0 06:22:05 10° NE 06:25:30 18° E 06:28:53 10° SE visible
17 Nov 3.8 19:08:18 10° S 19:13:14 53° W 19:18:12 10° NNW visible
18 Nov 3.0 18:31:31 10° SSE 18:36:30 62° ENE 18:41:31 10° N visible
18 Nov 6.2 20:14:45 10° WSW 20:15:49 11° W 20:16:53 10° W visible
19 Nov 3.9 17:55:51 10° SE 17:59:58 25° ENE 18:04:04 10° NNE visible
19 Nov 5.0 19:34:31 10° SSW 19:38:48 28° W 19:43:07 10° NW visible
20 Nov 6.2 06:11:41 10° ENE 06:14:08 13° E 06:16:36 10° ESE visible
20 Nov 3.3 18:56:55 10° S 19:01:57 70° WSW 19:07:01 10° NNW visible
21 Nov 3.2 18:20:27 10° SSE 18:25:17 47° ENE 18:30:08 10° N visible
21 Nov 5.9 20:01:44 10° SW 20:04:27 14° W 20:07:11 10° WNW visible
22 Nov 5.6 06:35:36 10° NE 06:39:48 26° E 06:44:00 10° SSE visible
22 Nov 4.5 19:22:51 10° SSW 19:27:29 36° W 19:32:09 10° NNW visible
